Regional Weather Roundup
Issued by NWS Columbia, SC

Home | Current Version | Previous Version | Text Only | Print | Product List | Glossary On
Versions: 1 2 3 4 5 6 7 8 9 10 11 12 13 14 15 16 17 18 19 20 21 22 23 24 25 26 27 28 29 30 31 32 33 34 35 36 37 38 39 40 41 42 43 44 45 46 47 48 49 50
000
ASUS42 KCAE 280610
RWRCAE
REGIONAL WEATHER ROUNDUP
NATIONAL WEATHER SERVICE COLUMBIA SC
200 AM EDT THU MAY 28 2015

NOTE: "FAIR" INDICATES FEW OR NO CLOUDS BELOW 12,000 FEET WITH NO
SIGNIFICANT WEATHER AND/OR OBSTRUCTIONS TO VISIBILITY.

NOT ALL STATIONS ARE QUALITY CONTROLLED BY THE NATIONAL
WEATHER SERVICE. USE DATA WITH CAUTION...ESPECIALLY
DEWPOINT OBSERVATIONS.

SCZ001>056-GAZ040-063>065-077-280700-
...UPSTATE SOUTH CAROLINA...

CITY           SKY/WX    TMP DP  RH WIND       PRES   REMARKS
ANDERSON       MOCLDY    67  65  93 CALM      30.20F
6HR MIN TEMP:  66; 6HR MAX TEMP:  78;

LIBERTY        MOCLDY   N/A N/A N/A CALM      30.21S
SPARTANBURG    PTCLDY    70  70 100 CALM      30.20F
CLEMSON        CLOUDY    71  67  87 CALM      30.22F
6HR MIN TEMP:  69; 6HR MAX TEMP:  78;

GREENVILLE     PTCLDY    69  63  81 CALM      30.22F
6HR MIN TEMP:  69; 6HR MAX TEMP:  78;

GREENWOOD      PTCLDY    71  67  87 S5        30.22F
6HR MIN TEMP:  70; 6HR MAX TEMP:  80;

GREER          PTCLDY    66  64  93 CALM      30.20F
6HR MIN TEMP:  66; 6HR MAX TEMP:  78;

ROCK HILL      PTCLDY    70  68  93 S3        30.22F
6HR MIN TEMP:  70; 6HR MAX TEMP:  78;

CHESTER        PTCLDY    72  68  88 S3        30.22F
LAURENS        MOCLDY    70  70 100 S3        30.21S


...CENTRAL SOUTH CAROLINA...

CITY           SKY/WX    TMP DP  RH WIND       PRES   REMARKS
COLUMBIA APT   PTCLDY    70  66  87 CALM      30.20F
6HR MIN TEMP:  70; 6HR MAX TEMP:  79;

COLUMBIA OWENS PTCLDY    70  67  90 CALM      30.21F
6HR MIN TEMP:  70; 6HR MAX TEMP:  78; 6HR PCP:  0.44;

DARLINGTON     MOCLDY    70  66  88 S3        30.22F
6HR MIN TEMP:  70; 6HR MAX TEMP:  75;

FLORENCE       CLOUDY    71  69  93 SE3       30.21F
6HR MIN TEMP:  71; 6HR MAX TEMP:  76;

MCENTIRE ANGB  PTCLDY    68  67  98 E2        30.20F FOG
6HR MIN TEMP:  67; 6HR MAX TEMP:  76; 6HR PCP:  0.02;

ORANGEBURG     CLEAR     67  65  93 CALM      30.21F
6HR MIN TEMP:  67; 6HR MAX TEMP:  75;

SUMTER SHAW    CLEAR     70  69  94 SW1       30.19F
6HR MIN TEMP:  70; 6HR MAX TEMP:  75;

NEWBERRY       MOCLDY    70  70 100 S3        30.24F
AIKEN          FAIR      70  63  78 CALM      30.24F
BARNWELL       FAIR      70  66  88 CALM      30.21F
MANNING        FAIR      66  64  94 CALM      30.21F FOG
CAMDEN         FAIR      70  70 100 CALM      30.21F
LANCASTER      LGT RAIN  66  66 100 CALM      30.22F VSB 1/2
WINNSBORO      PTCLDY    68  68 100 S5        30.21F


...EASTERN AND COASTAL SOUTH CAROLINA...

CITY           SKY/WX    TMP DP  RH WIND       PRES   REMARKS
MYRTLE BEACH   MOCLDY    75  66  73 S6        30.24F
6HR MIN TEMP:  75; 6HR MAX TEMP:  79;

N MYRTLE BCH   PTCLDY    74  67  78 S6        30.21F
6HR MIN TEMP:  74; 6HR MAX TEMP:  77;

CONWAY         FAIR      64  64 100 CALM      30.22F FOG
MARION         CLOUDY    68  68 100 CALM      30.22F
HARTSVILLE     FAIR      66  64  94 CALM      30.20F
FLORENCE       CLOUDY    71  69  93 SE3       30.21F
6HR MIN TEMP:  71; 6HR MAX TEMP:  76;

DARLINGTON     MOCLDY    70  66  88 S3        30.22F
6HR MIN TEMP:  70; 6HR MAX TEMP:  75;

CHARLESTON APT CLEAR     70  67  90 CALM      30.20F
6HR MIN TEMP:  70; 6HR MAX TEMP:  77;

MOUNT PLEASANT FAIR      70  66  88 CALM      30.20F
WALTERBORO     CLEAR     64  64 100 CALM      30.21F
BEAUFORT       PTCLDY    72  69  90 CALM      30.19F
6HR MIN TEMP:  69; 6HR MAX TEMP:  80;



...EASTERN GEORGIA...

CITY           SKY/WX    TMP DP  RH WIND       PRES   REMARKS
AUGUSTA BUSH F PTCLDY    70  67  90 CALM      30.19F
6HR MIN TEMP:  69; 6HR MAX TEMP:  79;

AUGUSTA DANIEL CLOUDY    75  65  70 S3        30.21S
6HR MIN TEMP:  74; 6HR MAX TEMP:  82;

THOMSON        PTCLDY    71  71 100 CALM      30.24F
6HR MIN TEMP:  71; 6HR MAX TEMP:  82;

WASHINGTON     FAIR      72  72 100 CALM      30.21S
CLAXTON        FAIR      64  64 100 CALM      30.20S
SYLVANIA       CLEAR     67  67 100 CALM      30.21F
6HR MIN TEMP:  67; 6HR MAX TEMP:  80;

STATESBORO     CLEAR     66  50  56 CALM      30.20F
6HR MIN TEMP:  65; 6HR MAX TEMP:  79;

SAVANNAH       CLEAR     68  65  90 CALM      30.20F
6HR MIN TEMP:  68; 6HR MAX TEMP:  78;



...SOUTHERN NORTH CAROLINA...

CITY           SKY/WX    TMP DP  RH WIND       PRES   REMARKS
CHARLOTTE      MOCLDY    70  67  90 S6        30.21F
6HR MIN TEMP:  70; 6HR MAX TEMP:  77;

MONROE         PTCLDY    69  67  93 CALM      30.21F
6HR MIN TEMP:  69; 6HR MAX TEMP:  75;

WADESBORO      CLEAR     68  66  93 CALM      30.21F
6HR MIN TEMP:  68; 6HR MAX TEMP:  78;

ROCKINGHAM     PTCLDY    69  68  96 CALM      30.22F
6HR MIN TEMP:  69; 6HR MAX TEMP:  75;

RUTHERFORDTON  PTCLDY    64  64 100 CALM      30.23S
6HR MIN TEMP:  64; 6HR MAX TEMP:  77;

ASHEVILLE      MOCLDY    66  63  90 SE3       30.26F
6HR MIN TEMP:  65; 6HR MAX TEMP:  73;


$$


USA.gov is the U.S. government's official web portal to all federal, state and local government web resources and services.